www.pogodaiklimat.ru

Погода и климат >> Архив погоды >> Россия >> Якутия >> Чюльбю


ПОГОДА в Чюльбю

  • Прогноз погоды в Чюльбю
  • Монитор погоды в Чюльбю

АРХИВ ПОГОДЫ в Чюльбю

Время (UTC), дата Ветер
(напр.,м/с)
 
Видим.   Явления Облачность Т
(С)
Тd
(С)
f
(%)
Тe
(С)
Тes
(С)
Комфортность P
(гПа)
Po
(гПа)
Тmin
(С)
Tmax
(С)
R
(мм)
R24
(мм)
S
(см)
12 11.08 штиль 0 20 км дым 10/6 600 м
[Cb cap Ci fib]
+15.7 +13.6 87 +15 +15 1005.3 975.6 +26.4
15 11.08 штиль 0 20 км дым 4/0
[Ci fib]
+9.7 +8.7 93 +9 +9 1006.3 976.0
18 11.08 В 1 20 км дым ясно +8.2 +7.4 95 +7 +7 1006.8 976.3
21 11.08 штиль 0 20 км дым 10/10 600 м
[Sc]
+11.3 +10.7 96 +11 +11 1006.6 976.5
00 12.08 В 1 20 км дым 10/10 600 м
[Sc]
+13.4 +11.1 86 +14 +14 1006.8 976.9 +7.6
03 12.08 ЮВ 1 20 км дым 3/3 1000 м
[Cu med, cong Ci fib]
+18.9 +12.9 68 +21 +30 комфорт 1004.1 974.9
06 12.08 СВ 2 20 км гроза без осадков 10/10 600 м
[Cb cap]
+21.4 +12.2 56 +24 +24 комфорт 1003.1 973.9
09 12.08 штиль 0 20 км дым {гроза, ливн. осадки} 6/4 600 м
[Cb cap Ac cast]
+17.7 +15.7 88 +18 +19 1004.3 975.0
12 12.08 З 1 20 км дым {гроза, ливн. осадки} 6/3 1000 м
[Sc Ac cast]
+13.3 +12.4 94 +13 +13 1006.0 976.1 +21.8 6
15 12.08 штиль 0 20 км дым 10/10 1000 м
[Sc]
+12.1 +11.5 96 +11 +11 1007.2 977.2
18 12.08 штиль 0 20 км дым 10/10 1000 м
[Sc]
+12.5 +11.6 94 +12 +12 1007.6 977.6
21 12.08 штиль 0 20 км дым 9/9 600 м
[Sc]
+11.5 +10.5 94 +11 +11 1008.9 978.7
00 13.08 штиль 0 20 км дым 8/8 1000 м
[Sc]
+13.3 +11.2 87 +13 +15 1008.9 978.9 +10.5
03 13.08 В 1 20 км дым 3/3 1000 м
[Sc]
+20.5 +13.4 64 +24 +33 комфорт 1006.5 977.3
06 13.08 С 1 20 км дым 10/3 1000 м
[Sc Cs]
+23.7 +11.5 46 +25 +30 комфорт 1004.9 976.0
09 13.08 СВ 1 20 км дым 10/3 1000 м
[Sc Ac trans Cs]
+21.3 +16.4 74 +25 +25 комфорт 1005.1 976.0
12 13.08 штиль 0 20 км дым 10/0
[Ac trans Cs]
+15.5 +13.7 89 +15 +15 1006.5 976.8 +23.9
15 13.08 штиль 0 20 км дым 6/0
[Ci fib]
+12.4 +11.3 93 +12 +12 1007.1 977.1
18 13.08 штиль 0 20 км дым 10/0
[Ci fib]
+12.1 +11.1 94 +11 +11 1007.1 977.1
21 13.08 штиль 0 20 км дым 10/10 1000 м
[Sc]
+12.7 +12.1 96 +12 +12 1006.8 976.8
00 14.08 штиль 0 20 км слаб. дождь 10/10 600 м
[Frnb Ns]
+14.5 +13.1 91 +14 +14 1006.4 976.6 +11.0 2
03 14.08 штиль 0 20 км дым {дождь} 10/8 600 м
[Sc Ac trans]
+16.6 +14.1 85 +16 +18 1005.1 975.6
06 14.08 штиль 0 20 км дым {дождь} 10/3 1000 м
[Sc As trans Cc]
+19.7 +15.7 78 +22 +25 комфорт 1003.7 974.6
09 14.08 штиль 0 20 км гроза, ливневой дождь 10/10 600 м
[Cb cap]
+18.7 +17.4 92 +20 +20 1003.7 974.5
12 14.08 штиль 0 20 км слаб. ливневой дождь {гроза} 10/8 600 м
[Cb cap As trans]
+17.5 +16.7 95 +17 +17 1004.0 974.7 +20.0 11
15 14.08 штиль 0 20 км дым {ливн. осадки} 10/10 1000 м
[Cb cap]
+16.3 +15.6 96 +16 +16 1004.5 975.0
18 14.08 штиль 0 20 км слаб. ливневой дождь 10/10 1000 м
[Cb cap]
+15.5 +14.5 94 +15 +15 1004.8 975.2
21 14.08 штиль 0 20 км слаб. ливневой дождь 10/10 600 м
[Cb cap]
+15.5 +14.8 96 +15 +15 1005.4 975.7
00 15.08 штиль 0 20 км дым {ливн. осадки} 9/8 600 м
[Cb cap Ac trans]
+17.4 +15.5 89 +17 +19 1006.0 976.5 +15.0 6
03 15.08 ЮЗ 1 50 км 8/8 600 м
[Cb cap]
+20.1 +16.8 81 +24 +27 комфорт 1005.5 976.3
06 15.08 штиль 0 50 км {ливн. осадки} 4/3 600 м
[Cb cap Ci fib]
+24.5 +18.9 71 +29 +36 душно 1004.0 975.4
09 15.08 СЗ 1 20 км гроза, ливневой дождь 10/10 600 м
[Cb cap]
+18.5 +16.3 87 +20 +20 1006.4 977.1
12 15.08 С 1 20 км слаб. ливневой дождь {гроза} 10/10 600 м
[Cb cap]
+17.5 +16.3 93 +19 +19 1007.7 978.3 +24.7 0.7
15 15.08 С 1 20 км слаб. ливневой дождь 10/10 600 м
[Cb cap]
+16.5 +15.8 96 +17 +17 1008.8 979.2
18 15.08 штиль 0 20 км слаб. ливневой дождь 10/10 600 м
[Cb cap]
+15.1 +14.4 96 +15 +15 1009.3 979.4
21 15.08 З 1 20 км {ливн. осадки} 10/9 600 м
[Cb cap Ci fib]
+14.9 +13.8 93 +15 +15 1010.2 980.4
00 16.08 штиль 0 50 км {ливн. осадки} 10/10 600 м
[Cb cap]
+15.9 +14.5 91 +16 +16 1011.0 981.3 +14.4 9
03 16.08 штиль 0 50 км 9/9 600 м
[Cb cap]
+18.2 +15.5 84 +18 +20 1011.6 982.0
06 16.08 штиль 0 50 км 9/6 600 м
[Cb cap Ac cast]
+21.6 +17.0 75 +26 +28 душно 1010.4 981.3
09 16.08 штиль 0 50 км 8/4 600 м
[Cb cap Ac cuf Ci fib]
+20.9 +18.3 85 +25 +25 комфорт 1010.0 980.8
12 16.08 штиль 0 50 км 8/0
[Ac lent Cs]
+16.1 +14.7 91 +16 +16 1011.5 981.7 +22.3
15 16.08 штиль 0 20 км 3/0
[Cs]
+12.5 +11.9 96 +12 +12 1013.0 982.8
18 16.08 штиль 0 20 км ясно +9.5 +8.9 96 +9 +9 1013.4 982.9
21 16.08 штиль 0 50 км ясно +9.5 +8.9 96 +9 +9 1013.4 983.1
00 17.08 штиль 0 20 км дым 10/0
[Ci fib]
+12.1 +10.8 92 +11 +18 1012.8 982.6 +9.0
03 17.08 СВ 1 20 км дым 10/0
[Cs]
+15.3 +12.4 83 +16 +26 1012.6 982.7
06 17.08 СВ 1 20 км дым 10/3
[Sc As op]
+13.1 +10.2 83 +13 +14 1013.1 983.0
09 17.08 СВ 1 20 км дым {дождь} 10/0
[As op]
+12.1 +10.4 89 +12 +12 1013.5 983.3
12 17.08 штиль 0 20 км дым 10/0
[As op]
+10.6 +9.0 90 +10 +10 1014.0 983.6 +15.3 0.0
15 17.08 штиль 0 н/о н/о +9.0 +8.5 97 +8 +8 1013.4 982.8
18 17.08 штиль 0 20 км слаб. дождь 10/0
[As op]
+9.4 +8.6 95 +9 +9 1012.8 982.3
21 17.08 штиль 0 20 км слаб. дождь 10/0
[As op]
+8.7 +8.1 96 +8 +8 1012.3 981.7
00 18.08 СВ 1 20 км слаб. дождь 10/0 600 м
[As op]
+10.9 +9.9 94 +10 +12 1012.0 981.6 +8.0 7
03 18.08 С 1 50 км {дождь} 10/0
[As op]
+12.1 +7.4 73 +12 +15 1012.1 981.8
06 18.08 С 2 50 км {дождь} 10/10 600 м
[Sc]
+14.1 +7.9 66 +14 +14 1011.8 981.7
09 18.08 штиль 0 20 км слаб. дождь 10/0 600 м
[As op]
+13.1 +11.4 89 +13 +13 1012.1 982.0

 

Местоположение метеостанции Чюльбю (Якутия, Россия): широта 57.77 долгота 130.90 высота над уровнем моря 255 м.

В архиве по умолчанию представлена погода в Чюльбю за последнюю неделю. Архивные данные за месяц целиком и за предыдущие месяцы, начиная с января 2011 года, Вы можете получить, выбрав интересующий диапазон дат из раскрывающегося списка и нажав кнопку "Ввод!".


*Определитесь, кто Вы:
робот инопланетянин человек

Внимание! Время в таблицах - всемирное. Для получения местного времени необходимо прибавить поправку, которая равна 9 ч.

Смотрите также архив погоды в соседних городах и на ближайших метеорологических станциях:

Погода в Учуре (Якутия, Россия) (108 км)
Погода в Токо (Якутия, Россия) (166 км)
Погода в Угино (Якутия, Россия) (170 км)
Погода в Усть-Миле (Якутия, Россия) (240 км)
Погода в Усть-Юдоме (Якутия, Россия) (290 км)
Погода в Канкунском (Якутия, Россия) (297 км)
Погода в Тегюльте (Якутия, Россия) (305 км)
Погода в Томмоте (Якутия, Россия) (305 км)
Погода в Буяге (Якутия, Россия) (309 км)
Погода в Нелькане (Хабаровский край, Россия) (309 км)

Пояснения к столбцам:

Ветер - указаны скорость ветра в м/с - средняя за 10 мин, порывы в срок и между сроками (в фигурных скобках) и направление, откуда дует ветер: С - северный, СВ - северо-восточный, В - восточный, ЮВ - юго-восточный, Ю - южный, ЮЗ - юго-западный, З - западный, СЗ - северо-западный.
Видимость - горизонтальная дальность видимости в метрах или километрах. При видимости от 1 до 10 км при отсутствии осадков обычно наблюдается дымка, при ухудшении видимости до 1 км и менее - туман. В сухую погоду видимость может ухудшаться дымом, пылью или мглою.
Явления - указаны атмосферные явления, наблюдавшиеся в срок или в последний час перед сроком; фигурными скобками обозначены явления, наблюдавшиеся между сроками (за 1-3 часа до срока); квадратными скобками обозначены град или гололедные отложения с указанием их диаметра в мм.
Облачность - указаны через наклонную черту общая и нижняя облачность в баллах и высота нижней границы облаков в метрах; квадратными скобками обозначены формы облаков: Ci - перистые, Cs - перисто-слоистые, Cc - перисто-кучевые, Ac - высококучевые, As - высокослоистые, Sc - слоисто-кучевые, Ns - слоисто-дождевые, Cu - кучевые, Cb - кучево-дождевые. Подробнее классификацию облаков см. в Атласе облаков (PDF).
T - Температура воздуха - температура, измеренная на высоте 2 м над землей.
Td - Температура точки росы - температура, при понижении до которой содержащийся в воздухе водяной пар достигнет насыщения.
f - Относительная влажность воздуха - влажноcть воздуха, измеренная на высоте 2 м над землей.
Te - Эффективная температура - температура, которую ощущает одетый по сезону человек в тени. Характеристика душности погоды. При расчете учитывается влияние влажности воздуха и скорости ветра на теплоощущения человека.
Tes - Эффективная температура на солнце - температура, которую ощущает человек, с поправкой на солнечный нагрев. Характеристика знойности погоды. Зависит от высоты солнца над горизонтом, облачности и скорости ветра. Ночью, в пасмурную погоду, а также при ветре 12 м/с и более поправка равна нулю.
P - Атмосферное давление - приведенное к уровню моря атмосферное давление.
Po - Атмосферное давление - измеренное на уровне метеостанции атмосферное давление.
Tmin - Минимальная температура - минимум температуры воздуха на высоте 2 м над землей.
Tmax - Максимальная температура - максимум температуры воздуха на высоте 2 м над землей.
R - Количество осадков - Количество выпавших осадков за период времени, мм. При наведении курсора мыши на число - период времени, за который выпало указанное количество осадков.
R24 - Количество осадков - Количество выпавших осадков за 24 часа, мм.
S - Снежный покров - Высота снежного покрова, см. При наведении курсора мыши на число - состояние снежного покрова и степень покрытия местности в баллах.